Regional Weather Roundup
Issued by NWS

Home | Current Version | Previous Version | Graphics & Text | Print | Product List | Glossary On
Versions: 1 2 3 4 5 6 7 8 9 10 11 12 13 14 15 16 17 18 19 20 21 22 23 24 25 26 27 28 29 30 31 32 33 34 35 36 37 38 39 40 41 42 43 44 45 46 47 48 49 50
000
ASUS43 KMPX 192310
RWRMN
WEATHER ROUNDUP FOR MINNESOTA
NATIONAL WEATHER SERVICE TWIN CITIES/CHANHASSEN MN
600 PM CDT SAT AUG 19 2017


NOTE: "FAIR" INDICATES FEW OR NO CLOUDS BELOW 12,000 FEET WITH NO
SIGNIFICANT WEATHER AND/OR OBSTRUCTIONS TO VISIBILITY. N/A MEANS
CURRENT SKY AND/OR WEATHER CONDITIONS ARE NOT AVAILABLE.

MNZ060>063-068>070-200000-
   Twin Cities Metro

CITY           SKY/WX    TMP DP  RH WIND       PRES   REMARKS
TWIN CITIES    MOSUNNY   80  61  52 SW8       29.89S
ST PAUL        SUNNY     78  64  61 SE9       29.89S
CRYSTAL        SUNNY     79  59  50 S7        29.87F
BLAINE         MOSUNNY   82  59  44 S7        29.88F
LAKEVILLE      SUNNY     75  63  64 S5        29.90F
EDEN PRAIRIE   SUNNY     79  64  60 S9        29.88F
SOUTH ST PAUL  SUNNY     79  61  54 SW7       29.89S
LAKE ELMO      FAIR      79  63  57 SW9       29.90S
$$
MNZ001>005-007-008-013>017-022>024-027-028-200000-
   Northwest Minnesota

CITY           SKY/WX    TMP DP  RH WIND       PRES   REMARKS
BEMIDJI        SUNNY     79  59  50 S9        29.82S
HALLOCK        SUNNY     86  55  35 S18G24    29.69S
ROSEAU         SUNNY     84  59  42 S15       29.74S
WARROAD        SUNNY     82  63  51 S6        29.75S
THIEF RVR FALL SUNNY     81  58  45 S15G22    29.77F
CROOKSTON      SUNNY     82  57  42 S17       29.75S
FOSSTON        SUNNY     81  57  44 S12G18    29.81S
DETROIT LAKES  SUNNY     77  61  57 S9        29.84F
MOORHEAD       SUNNY     79  63  57 S13G21    29.78F
PARK RAPIDS    SUNNY     79  58  48 S12       29.84F
MAHNOMEN       FAIR      78  61  56 S8        29.81S
$$
MNZ006-009>011-018-025>026-200000-
   North Central Minnesota

CITY           SKY/WX    TMP DP  RH WIND       PRES   REMARKS
BAUDETTE       SUNNY     81  57  43 S9        29.77S
FLAG ISLAND    SUNNY     79  64  61 S3        29.73F
INTL FALLS     MOSUNNY   79  54  41 SW7       29.79F
WASKISH        CLOUDY    81  57  44 SW5       29.80S
BIG FORK       MOSUNNY   81  59  47 S7        29.83S
LONGVILLE      SUNNY     77  61  57 S6        29.85S
GRAND RAPIDS   SUNNY     77  60  55 S6        29.87S
CRANE LAKE     CLOUDY    75  57  53 SW3       29.83S
ORR            MOSUNNY   77  54  44 CALM      29.81S
COOK           MOSUNNY   79  55  44 SW6       29.84S
WALKER         FAIR      77  59  54 SW10      29.84S
$$
MNZ012-019>021-037-200000-
   Northeast Minnesota

CITY           SKY/WX    TMP DP  RH WIND       PRES   REMARKS
DULUTH         MOSUNNY   78  60  53 SW8       29.86F
ELY            SUNNY     75  54  46 SW5       29.85R
HIBBING        SUNNY     76  55  48 SW9       29.85S
EVELETH        SUNNY     78  44  30 SW6       29.86S
DULUTH HARBOR  SUNNY     81  63  54 SW12      29.84S
TWO HARBORS    SUNNY     82  64  54 W6        29.83F
SILVER BAY     MOSUNNY   81  61  50 SW7       29.83S
GRAND MARAIS     N/A     70  63  78 W10       29.81F
G MARAIS ARPRT SUNNY     73  54  49 S5        29.87F
$$
MNZ029>031-032-039>041-046>048-054>057-064-200000-
   West Central Minnesota

CITY           SKY/WX    TMP DP  RH WIND       PRES   REMARKS
FERGUS FALLS   SUNNY     77  64  65 S10       29.81F
WHEATON        SUNNY     77  63  61 SE13G20   29.82F
MORRIS         SUNNY     79  64  61 S12       29.83F
ALEXANDRIA     SUNNY     76  61  59 S14       29.88F
ELBOW LAKE     FAIR      76  64  66 S10       29.84F HAZE
WADENA         SUNNY     75  59  57 S9        29.85S
GLENWOOD       SUNNY     77  61  57 S13       29.88S
APPLETON       SUNNY     79  63  57 SE7       29.83F
BENSON         SUNNY     79  61  53 S9        29.86F
ORTONVILLE     SUNNY     79  64  61 MISG      29.82F
MADISON        SUNNY     81  66  61 S10       29.83F
WILLMAR        FAIR      79  64  61 S5        29.88F
$$
MNZ033>034-036-042>043-049>051-058-059-200000-
   Central Minnesota

CITY           SKY/WX    TMP DP  RH WIND       PRES   REMARKS
ST CLOUD       SUNNY     78  60  53 S9        29.88S
SAUK CENTRE    FAIR      76  61  58 S9        29.88S
PAYNESVILLE    SUNNY     76  61  59 S7        29.89S
AITKIN         SUNNY     77  61  57 S6        29.86S
PINE RIVER     SUNNY     75  61  60 S6        29.89S
BRAINERD       SUNNY     77  58  51 SW13      29.87S
STAPLES        SUNNY     77  57  50 S10       29.86S
LONG PRAIRIE   FAIR      73  61  64 SE9       29.88S
LITTLE FALLS   SUNNY     77  57  50 S9        29.88S
LITCHFIELD     SUNNY     79  63  57 SE3       29.89F
BUFFALO        SUNNY     78  59  52 S7        29.90R
MAPLE LAKE     SUNNY     78  63  60 S5        29.90S
HUTCHINSON     SUNNY     78  67  70 S7        29.90S
$$
MNZ037-044-045-052-053-200000-
   East Central Minnesota

CITY           SKY/WX    TMP DP  RH WIND       PRES   REMARKS
PRINCETON      SUNNY     81  57  44 S6        29.88S
MORA           SUNNY     75  59  57 S8        29.90S
CAMBRIDGE      SUNNY     81  61  50 S5        29.89R
RUSH CITY      SUNNY     78  59  52 S3        29.89S HAZE
MOOSE LAKE     SUNNY     77  59  53 SW7       29.85F
HINCKLEY       FAIR      77  61  57 S8        29.88S
CLOQUET        SUNNY     79  55  44 SW5       29.87S
MCGREGOR       SUNNY     77  59  53 SW8       29.88R
$$
MNZ071>073-080-081-089-090-097-098-200000-
   Southwest Minnesota

CITY           SKY/WX    TMP DP  RH WIND       PRES   REMARKS
MONTEVIDEO     SUNNY     81  64  57 S8        29.85F
GRANITE FALLS  SUNNY     80  65  61 SE8       29.87F
CANBY          SUNNY     80  64  57 SE9       29.85F
REDWOOD FALLS  SUNNY     79  63  57 S13       29.87S
OLIVIA         SUNNY     77  63  61 S7        29.87S
PIPESTONE      SUNNY     77  63  61 S9G16     29.88F
WINDOM         SUNNY     79  63  57 S7        29.90S
WORTHINGTON    SUNNY     78  63  59 SE8       29.91S
JACKSON        SUNNY     77  63  61 CALM      29.91F
TRACY          SUNNY     79  65  63 S8        29.88S
SLAYTON        SUNNY     77  59  53 S10       29.90F
$$
MNZ065>067-074>077-082>085-091>093-200000-
   South Central Minnesota

CITY           SKY/WX    TMP DP  RH WIND       PRES   REMARKS
MANKATO        MOSUNNY   77  65  66 S7        29.91S
NEW ULM        SUNNY     79  64  61 S8        29.89S
ST JAMES       SUNNY     77  64  65 S7        29.91S
FAIRMONT       SUNNY     78  66  66 S9        29.91F
GLENCOE        SUNNY     78  67  70 S8        29.89S
FARIBAULT      MOSUNNY   79  64  61 S3        29.92S
OWATONNA       MOSUNNY   79  64  61 S7        29.92S
WASECA         MOSUNNY   77  63  61 S6        29.93S
ALBERT LEA     MOSUNNY   81  64  57 S6        29.93S
$$
MNZ078>079-086>088-094>096-200000-
   Southeast Minnesota

CITY           SKY/WX    TMP DP  RH WIND       PRES   REMARKS
ROCHESTER      MOSUNNY   75  64  68 SW9       29.94S
RED WING       SUNNY     81  57  44 S6        29.89S
STANTON        MOSUNNY   79  64  60 S6        29.90S
DODGE CENTER   MOSUNNY   75  63  64 S7        29.94R
WINONA         MOSUNNY   79  61  53 SW5       29.92S
AUSTIN         MOSUNNY   75  63  64 S8        29.93S
PRESTON        MOSUNNY   77  61  58 S9        29.95S
$$
ABBREVIATIONS USED IN REMARKS
   TC - TEMPERATURES IN CELSIUS
  WCI - WIND CHILL INDEX
   HX - HEAT INDEX
  VSB - VISIBILITY
$$




USA.gov is the U.S. government's official web portal to all federal, state and local government web resources and services.